Find SBSS 1

NORAD ID: 37168 Int'l Des: 2010-048 Owner: AFSMC Country: US Constellation: satellogic operational
LEOCIRCULARRETROGRADESSO

リアルタイム位置

3D地球を読み込み中...

SBSS 1について

説明を読み込み中...

次回通過

Passes for default location (London). Set your location on the main map for personalized predictions.

高度履歴

Loading altitude history...

軌道要素

1 37168U 10048A 26106.89500697 .00003249 00000-0 15823-3 0 9997
2 37168 97.7417 351.1535 0083176 55.6646 9.2470 15.16087421843183
Epoch: Apr 16, 2026 • Age: 13 hours

現在のステータス

高度 572.1 km
速度 7.55 km/s
衛星直下点 -19.12°S, 162.35°E
打ち上げ日 Sep 26, 2010
運用期間 15.5 years
タイプ other

技術仕様

分類 Payload
質量 1031.00 kg
乾燥質量 900.00 kg
総質量 1031.00 kg
長さ 3.00 m
直径 2.00 m
スパン 10.00 m
形状 Box + 2 Pan
製造者 BALL/BOSB
バスタイプ BCP-2000
フェーズステータス In Orbit
所有者/国 AFSMC/US

Most Searched